Change the Weather History Date:

Wednesday, December 4, 2013

  Actual Average Record
Temperature  
Mean Temperature 68 °F -  
Max Temperature 78 °F 63 °F 80 °F (1938)
Min Temperature 57 °F 43 °F 21 °F (1960)
Cooling Degree Days 2    
Growing Degree Days 18 (Base 50)    
Moisture  
Dew Point 58 °F    
Average Humidity 80    
Maximum Humidity 93    
Minimum Humidity 54    
Precipitation  
Precipitation 0.00 in - - ()
Sea Level Pressure  
Sea Level Pressure 30.04 in    
Wind  
Wind Speed 4 mph (SSW)    
Max Wind Speed 9 mph    
Max Gust Speed -    
Visibility 9 miles    
Events Fog    
Averages and records for this station are not official NWS values.
T = Trace of Precipitation, MM = Missing Value Source: NWS Daily Summary

Daily Weather History Graph

Daily Weather History Graph

Search for Another Location

Airport or City:

Trip Planner

Search our weather history database for the weather conditions in past years. The results will help you decide how hot, cold, wet, or windy it might be!

Date:

Astronomy

Dec. 04, 2013 Rise Set
Actual Time 7:09 AM EST 5:17 PM EST
Civil Twilight 6:42 AM EST 5:44 PM EST
Nautical Twilight 6:11 AM EST 6:14 PM EST
Astronomical Twilight 5:42 AM EST 6:44 PM EST
Moon 8:38 AM EST (12/4) 7:23 PM EST (12/4)
Length of Visible Light 11h 01m
Length of Day
10h 07m
Waxing Crescent, 4% of the Moon is Illuminated
Dec 4
Waxing Crescent
Dec 9
First Quarter
Dec 17
Full
Dec 25
Last Quarter
Jan 1
New

Hourly Weather History & Observations

Time (EST) Temp. Dew Point Humidity Pressure Visibility Wind Dir Wind Speed Gust Speed Precip Events Conditions
12:56 AM 57.9 °F 55.9 °F 93% 29.98 in 8.0 mi SSW 3.5 mph - N/A   Mostly Cloudy
1:56 AM 61.0 °F 57.9 °F 90% 29.98 in 10.0 mi SSW 5.8 mph - N/A   Overcast
2:56 AM 63.0 °F 57.9 °F 84% 29.98 in 10.0 mi SSW 6.9 mph - N/A   Overcast
3:56 AM 63.0 °F 57.0 °F 81% 29.98 in 10.0 mi SSW 5.8 mph - N/A   Overcast
4:56 AM 63.0 °F 57.9 °F 84% 29.99 in 10.0 mi SSW 6.9 mph - N/A   Overcast
5:56 AM 60.1 °F 55.9 °F 86% 30.00 in 10.0 mi Calm Calm - N/A   Mostly Cloudy
6:56 AM 59.0 °F 55.9 °F 90% 30.01 in 10.0 mi South 3.5 mph - N/A   Scattered Clouds
7:56 AM 57.9 °F 55.0 °F 90% 30.04 in 6.0 mi Calm Calm - N/A Fog Mostly Cloudy
8:56 AM 64.9 °F 59.0 °F 81% 30.06 in - SW 4.6 mph - N/A   Scattered Clouds
9:56 AM 70.0 °F 61.0 °F 73% 30.07 in 7.0 mi SW 8.1 mph - N/A   Scattered Clouds
10:56 AM 73.0 °F 62.1 °F 68% 30.07 in 10.0 mi WSW 9.2 mph - N/A   Scattered Clouds
11:56 AM 75.0 °F 62.1 °F 64% 30.06 in 10.0 mi WNW 5.8 mph - N/A   Scattered Clouds
12:56 PM 75.0 °F 61.0 °F 62% 30.03 in 10.0 mi West 9.2 mph - N/A   Smoke
1:56 PM 78.8 °F 60.8 °F 54% 30.01 in 10.0 mi NW 8.1 mph - N/A   Smoke
2:56 PM 78.1 °F 60.1 °F 54% 30.01 in 10.0 mi Calm Calm - N/A   Mostly Cloudy
3:56 PM 75.9 °F 59.0 °F 56% 30.02 in 10.0 mi Calm Calm - N/A   Scattered Clouds
4:56 PM 68.0 °F 61.0 °F 78% 30.03 in 10.0 mi South 5.8 mph - N/A   Scattered Clouds
5:56 PM 64.9 °F 60.1 °F 84% 30.05 in 10.0 mi South 3.5 mph - N/A   Mostly Cloudy
6:56 PM 63.0 °F 60.1 °F 90% 30.07 in 10.0 mi SSW 3.5 mph - N/A   Partly Cloudy
7:56 PM 61.0 °F 57.9 °F 90% 30.08 in 10.0 mi South 3.5 mph - N/A   Clear
8:56 PM 61.0 °F 57.9 °F 90% 30.09 in 7.0 mi Calm Calm - N/A   Clear
9:56 PM 57.9 °F 55.9 °F 93% 30.10 in 5.0 mi Calm Calm - N/A   Clear
10:56 PM 59.0 °F 55.9 °F 90% 30.12 in 4.0 mi Calm Calm - N/A   Clear
11:56 PM 57.9 °F 55.9 °F 93% 30.11 in 3.0 mi South 4.6 mph - N/A   Clear